QPF
0.04 0.02 0.04 0.10 0.10 0.11 0.13 0.12 0.13 0.09 0.08 0.09 0.08 0.08 0.06 0.06 0.07 0.07 0.07 0.07 0.04 0.04 0.03 0.04 0.04 0.05 0.06 0.07 0.08 0.08 0.10 0.11 0.13 0.14 0.13 0.12 0.11 0.12 0.13 0.19 0.23 0.21 0.18
0.02 0.01 0.02 0.03 0.04 0.05 0.06 0.06 0.05 0.05 0.05 0.06 0.05 0.05 0.05 0.05 0.05 0.05 0.06 0.05 0.04 0.03 0.03 0.02 0.03 0.05 0.05 0.06 0.07 0.08 0.09 0.10 0.13 0.15 0.17 0.16 0.16 0.14 0.12 0.12 0.15 0.18 0.21
0.02 0.01 0.01 0.01 0.02 0.02 0.03 0.02 0.03 0.03 0.03 0.03 0.04 0.04 0.05 0.05 0.04 0.04 0.04 0.04 0.04 0.03 0.02 0.02 0.03 0.05 0.08 0.08 0.08 0.09 0.11 0.11 0.13 0.16 0.19 0.17 0.15 0.15 0.15 0.13 0.13 0.15 0.18
0.02 0.02 0.01 0.01 0.01 0.01 0.01 0.01 0.01 0.01 0.01 0.01 0.02 0.03 0.04 0.03 0.04 0.05 0.04 0.04 0.05 0.04 0.03 0.02 0.02 0.02 0.03 0.04 0.06 0.08 0.10 0.11 0.12 0.16 0.17 0.15 0.12 0.14 0.15 0.16 0.15 0.18 0.21
0.03 0.02 0.01 0.01 0.00 0.01 0.01 0.01 0.01 0.01 0.01 0.01 0.01 0.01 0.02 0.02 0.04 0.04 0.05 0.05 0.04 0.03 0.02 0.02 0.01 0.02 0.03 0.03 0.03 0.04 0.07 0.11 0.13 0.12 0.13 0.13 0.12 0.12 0.12 0.14 0.16 0.18 0.21
0.04 0.01 0.00 0.00 0.00 0.00 0.00 0.00 0.00 0.00 0.00 0.00 0.00 0.00 0.01 0.02 0.02 0.03 0.04 0.03 0.03 0.02 0.01 0.01 0.01 0.01 0.02 0.03 0.03 0.02 0.03 0.07 0.11 0.13 0.15 0.16 0.16 0.17 0.18 0.17 0.17 0.18 0.19
0.03 0.01 0.00 0.00 0.00 0.00 0.00 0.00 0.00 0.00 0.00 0.00 0.00 0.00 0.00 0.01 0.01 0.02 0.02 0.02 0.02 0.02 0.02 0.02 0.02 0.03 0.03 0.02 0.02 0.02 0.02 0.04 0.07 0.09 0.12 0.16 0.18 0.19 0.20 0.22 0.22 0.21 0.21
0.01 0.00 0.00 0.00 0.00 0.00 0.00 0.00 0.00 0.00 0.00 0.00 0.00 0.00 0.00 0.00 0.01 0.01 0.01 0.01 0.01 0.01 0.02 0.02 0.01 0.02 0.03 0.03 0.02 0.02 0.02 0.03 0.04 0.06 0.09 0.11 0.14 0.15 0.16 0.18 0.20 0.24 0.27
0.01 0.01 0.00 0.00 0.00 0.00 0.00 0.00 0.00 0.00 0.00 0.00 0.00 0.00 0.00 0.00 0.00 0.01 0.00 0.00 0.00 0.00 0.00 0.01 0.01 0.01 0.01 0.03 0.03 0.03 0.03 0.03 0.05 0.06 0.08 0.09 0.10 0.11 0.12 0.15 0.16 0.18 0.22
0.01 0.00 0.00 0.00 0.00 0.00 0.00 0.00 0.00 0.00 0.00 0.00 0.00 0.00 0.00 0.01 0.01 0.01 0.00 0.00 0.00 0.00 0.00 0.00 0.00 0.00 0.01 0.01 0.02 0.03 0.03 0.03 0.04 0.05 0.05 0.07 0.08 0.09 0.10 0.13 0.15 0.16 0.17
0.01 0.00 0.00 0.00 0.00 0.00 0.00 0.00 0.00 0.00 0.00 0.00 0.00 0.00 0.02 0.02 0.02 0.02 0.01 0.00 0.00 0.00 0.00 0.00 0.00 0.00 0.01 0.01 0.01 0.02 0.03 0.04 0.04 0.05 0.04 0.04 0.05 0.06 0.06 0.07 0.10 0.12 0.12
0.01 0.00 0.00 0.00 0.00 0.00 0.00 0.00 0.00 0.00 0.00 0.00 0.00 0.01 0.02 0.02 0.02 0.02 0.01 0.00 0.00 0.00 0.00 0.00 0.00 0.00 0.00 0.00 0.01 0.02 0.02 0.03 0.03 0.04 0.04 0.04 0.05 0.06 0.07 0.07 0.08 0.09 0.09
0.01 0.01 0.00 0.00 0.00 0.00 0.00 0.00 0.00 0.00 0.00 0.00 0.00 0.00 0.01 0.00 0.00 0.01 0.01 0.01 0.01 0.01 0.01 0.01 0.01 0.01 0.01 0.01 0.02 0.03 0.03 0.04 0.05 0.05 0.05 0.06 0.06 0.06 0.05 0.05 0.05 0.06 0.07
0.02 0.01 0.01 0.00 0.00 0.00 0.00 0.00 0.00 0.00 0.00 0.00 0.00 0.00 0.00 0.00 0.00 0.00 0.00 0.00 0.00 0.01 0.01 0.01 0.01 0.01 0.01 0.01 0.02 0.03 0.04 0.05 0.05 0.04 0.04 0.05 0.05 0.05 0.04 0.04 0.04 0.04 0.05
0.02 0.01 0.01 0.01 0.01 0.00 0.00 0.00 0.00 0.00 0.00 0.00 0.00 0.00 0.00 0.00 0.00 0.00 0.00 0.00 0.00 0.00 0.00 0.01 0.01 0.01 0.01 0.01 0.01 0.02 0.03 0.04 0.03 0.03 0.03 0.03 0.03 0.03 0.02 0.02 0.02 0.02 0.02
0.02 0.01 0.01 0.01 0.00 0.00 0.00 0.00 0.00 0.00 0.00 0.00 0.00 0.00 0.00 0.00 0.00 0.00 0.00 0.00 0.00 0.00 0.00 0.00 0.00 0.01 0.01 0.01 0.02 0.02 0.03 0.03 0.02 0.02 0.02 0.01 0.01 0.01 0.00 0.01 0.01 0.01 0.01
0.01 0.01 0.02 0.02 0.01 0.00 0.00 0.00 0.00 0.00 0.00 0.00 0.00 0.01 0.01 0.01 0.01 0.01 0.00 0.00 0.00 0.00 0.01 0.00 0.00 0.00 0.01 0.01 0.01 0.02 0.02 0.02 0.01 0.01 0.01 0.00 0.00 0.00 0.00 0.00 0.00 0.00 0.01
0.03 0.02 0.02 0.02 0.01 0.01 0.00 0.00 0.00 0.00 0.00 0.00 0.01 0.01 0.01 0.01 0.01 0.00 0.00 0.00 0.00 0.00 0.01 0.01 0.00 0.00 0.01 0.01 0.01 0.01 0.02 0.01 0.00 0.00 0.00 0.00 0.00 0.01 0.00 0.00 0.00 0.00 0.00
0.04 0.02 0.02 0.02 0.02 0.01 0.01 0.00 0.00 0.00 0.00 0.01 0.01 0.01 0.00 0.00 0.01 0.00 0.00 0.00 0.00 0.01 0.01 0.01 0.01 0.00 0.00 0.00 0.00 0.00 0.01 0.00 0.00 0.00 0.00 0.00 0.00 0.00 0.00 0.00 0.00 0.00 0.00
0.04 0.02 0.01 0.02 0.02 0.01 0.01 0.01 0.01 0.01 0.01 0.00 0.00 0.01 0.01 0.00 0.01 0.01 0.01 0.01 0.01 0.01 0.01 0.01 0.01 0.01 0.00 0.00 0.01 0.00 0.00 0.00 0.00 0.00 0.00 0.00 0.00 0.00 0.00 0.00 0.00 0.00 0.00
0.02 0.02 0.02 0.01 0.01 0.01 0.01 0.01 0.02 0.01 0.00 0.00 0.00 0.01 0.01 0.01 0.01 0.00 0.01 0.01 0.01 0.01 0.01 0.00 0.01 0.01 0.01 0.00 0.01 0.01 0.00 0.00 0.00 0.00 0.00 0.00 0.00 0.00 0.00 0.00 0.00 0.00 0.00
0.01 0.01 0.01 0.01 0.02 0.02 0.01 0.02 0.02 0.01 0.01 0.01 0.01 0.01 0.01 0.01 0.01 0.01 0.01 0.01 0.01 0.01 0.01 0.01 0.01 0.01 0.00 0.00 0.00 0.01 0.00 0.00 0.00 0.00 0.00 0.00 0.00 0.00 0.00 0.00 0.00 0.00 0.00
0.00 0.01 0.01 0.01 0.01 0.02 0.02 0.02 0.02 0.02 0.02 0.01 0.01 0.01 0.01 0.01 0.01 0.01 0.01 0.01 0.01 0.01 0.00 0.00 0.00 0.00 0.00 0.00 0.00 0.00 0.00 0.00 0.00 0.00 0.00 0.00 0.00 0.00 0.00 0.00 0.00 0.00 0.00
0.00 0.00 0.01 0.01 0.01 0.02 0.03 0.02 0.02 0.01 0.02 0.02 0.01 0.01 0.01 0.01 0.01 0.01 0.01 0.01 0.01 0.01 0.01 0.00 0.00 0.00 0.00 0.00 0.00 0.00 0.00 0.00 0.00 0.00 0.00 0.00 0.00 0.00 0.00 0.00 0.00 0.00 0.00
0.01 0.01 0.01 0.01 0.01 0.01 0.02 0.02 0.02 0.02 0.01 0.02 0.01 0.01 0.01 0.01 0.01 0.01 0.00 0.00 0.00 0.01 0.00 0.00 0.00 0.00 0.00 0.00 0.00 0.00 0.00 0.00 0.00 0.00 0.00 0.00 0.00 0.00 0.00 0.00 0.00 0.00 0.00
0.02 0.03 0.02 0.01 0.01 0.01 0.01 0.01 0.01 0.01 0.01 0.02 0.01 0.01 0.01 0.00 0.01 0.00 0.00 0.00 0.00 0.00 0.00 0.00 0.00 0.00 0.00 0.00 0.00 0.00 0.00 0.00 0.00 0.00 0.00 0.00 0.00 0.00 0.00 0.00 0.00 0.00 0.00
MSLP
1014.97 1015.04 1015.07 1015.04 1014.94 1014.76 1014.52 1014.21 1013.88 1013.55 1013.26 1013.04 1012.91 1012.89 1012.96 1013.12 1013.35 1013.62 1013.92 1014.23 1014.54 1014.87 1015.22 1015.58 1015.96 1016.34 1016.71 1017.06 1017.37 1017.62 1017.82 1017.99 1018.13 1018.28 1018.45 1018.66 1018.92 1019.21 1019.52 1019.84 1020.14 1020.41 1020.65
1015.39 1015.50 1015.56 1015.54 1015.42 1015.20 1014.90 1014.54 1014.16 1013.81 1013.51 1013.31 1013.20 1013.20 1013.29 1013.45 1013.65 1013.88 1014.13 1014.38 1014.64 1014.93 1015.24 1015.58 1015.93 1016.29 1016.64 1016.95 1017.21 1017.42 1017.58 1017.70 1017.82 1017.96 1018.13 1018.36 1018.64 1018.97 1019.33 1019.68 1020.03 1020.34 1020.62
1015.85 1016.03 1016.15 1016.16 1016.06 1015.83 1015.50 1015.11 1014.70 1014.32 1014.02 1013.82 1013.73 1013.74 1013.82 1013.97 1014.14 1014.32 1014.51 1014.70 1014.90 1015.12 1015.38 1015.67 1015.97 1016.28 1016.57 1016.83 1017.03 1017.17 1017.27 1017.35 1017.44 1017.56 1017.74 1017.98 1018.30 1018.66 1019.06 1019.47 1019.87 1020.24 1020.57
1016.31 1016.58 1016.78 1016.86 1016.80 1016.59 1016.26 1015.85 1015.42 1015.03 1014.72 1014.52 1014.43 1014.44 1014.52 1014.64 1014.78 1014.92 1015.05 1015.17 1015.31 1015.46 1015.65 1015.86 1016.09 1016.33 1016.54 1016.71 1016.83 1016.90 1016.93 1016.96 1017.01 1017.10 1017.27 1017.53 1017.86 1018.27 1018.71 1019.18 1019.64 1020.08 1020.49
1016.76 1017.11 1017.40 1017.57 1017.57 1017.41 1017.10 1016.70 1016.27 1015.86 1015.54 1015.33 1015.23 1015.23 1015.30 1015.41 1015.52 1015.62 1015.70 1015.76 1015.83 1015.92 1016.02 1016.15 1016.29 1016.43 1016.54 1016.60 1016.62 1016.60 1016.55 1016.50 1016.50 1016.56 1016.71 1016.96 1017.31 1017.74 1018.24 1018.76 1019.30 1019.82 1020.32
1017.15 1017.59 1017.98 1018.25 1018.33 1018.23 1017.96 1017.58 1017.15 1016.75 1016.42 1016.19 1016.08 1016.06 1016.12 1016.20 1016.29 1016.36 1016.40 1016.42 1016.43 1016.44 1016.47 1016.50 1016.53 1016.55 1016.54 1016.48 1016.38 1016.24 1016.09 1015.96 1015.88 1015.89 1016.01 1016.24 1016.59 1017.05 1017.59 1018.18 1018.80 1019.42 1020.03
1017.49 1018.02 1018.51 1018.87 1019.04 1019.01 1018.79 1018.44 1018.03 1017.63 1017.29 1017.05 1016.92 1016.89 1016.93 1016.99 1017.06 1017.10 1017.11 1017.09 1017.04 1016.98 1016.91 1016.84 1016.75 1016.64 1016.49 1016.29 1016.05 1015.79 1015.52 1015.29 1015.12 1015.07 1015.13 1015.34 1015.69 1016.16 1016.75 1017.41 1018.12 1018.86 1019.60
1017.77 1018.38 1018.96 1019.41 1019.67 1019.71 1019.55 1019.25 1018.86 1018.47 1018.13 1017.88 1017.73 1017.68 1017.69 1017.73 1017.78 1017.79 1017.77 1017.70 1017.60 1017.46 1017.30 1017.11 1016.90 1016.64 1016.34 1015.99 1015.60 1015.20 1014.81 1014.47 1014.21 1014.08 1014.09 1014.27 1014.61 1015.11 1015.74 1016.48 1017.30 1018.16 1019.05
1017.98 1018.67 1019.33 1019.86 1020.19 1020.31 1020.22 1019.96 1019.61 1019.24 1018.91 1018.65 1018.49 1018.41 1018.39 1018.40 1018.42 1018.40 1018.33 1018.22 1018.05 1017.84 1017.58 1017.27 1016.92 1016.52 1016.07 1015.57 1015.04 1014.50 1013.99 1013.54 1013.20 1013.00 1012.96 1013.11 1013.45 1013.97 1014.66 1015.48 1016.40 1017.39 1018.43
1018.13 1018.88 1019.61 1020.20 1020.60 1020.78 1020.75 1020.55 1020.25 1019.91 1019.60 1019.34 1019.16 1019.06 1019.01 1018.99 1018.96 1018.89 1018.78 1018.61 1018.38 1018.08 1017.72 1017.31 1016.83 1016.30 1015.71 1015.07 1014.41 1013.75 1013.14 1012.60 1012.19 1011.94 1011.87 1012.01 1012.35 1012.90 1013.64 1014.54 1015.57 1016.68 1017.84
1018.24 1019.03 1019.78 1020.41 1020.85 1021.08 1021.11 1020.98 1020.73 1020.44 1020.16 1019.92 1019.74 1019.62 1019.54 1019.47 1019.39 1019.28 1019.11 1018.88 1018.57 1018.20 1017.76 1017.25 1016.67 1016.03 1015.33 1014.59 1013.83 1013.09 1012.40 1011.81 1011.36 1011.08 1011.00 1011.15 1011.51 1012.09 1012.89 1013.85 1014.95 1016.16 1017.42
1018.32 1019.12 1019.87 1020.50 1020.96 1021.22 1021.30 1021.23 1021.05 1020.82 1020.58 1020.37 1020.20 1020.07 1019.96 1019.85 1019.72 1019.56 1019.33 1019.04 1018.68 1018.25 1017.74 1017.17 1016.52 1015.80 1015.04 1014.24 1013.43 1012.65 1011.94 1011.33 1010.88 1010.60 1010.54 1010.70 1011.09 1011.71 1012.53 1013.54 1014.69 1015.94 1017.25
1018.41 1019.17 1019.88 1020.48 1020.92 1021.20 1021.31 1021.30 1021.19 1021.03 1020.85 1020.69 1020.54 1020.40 1020.27 1020.13 1019.97 1019.75 1019.48 1019.15 1018.75 1018.28 1017.75 1017.14 1016.46 1015.73 1014.95 1014.14 1013.34 1012.57 1011.87 1011.29 1010.87 1010.63 1010.60 1010.79 1011.20 1011.83 1012.67 1013.68 1014.82 1016.07 1017.37
1018.55 1019.23 1019.85 1020.38 1020.77 1021.04 1021.18 1021.21 1021.17 1021.08 1020.98 1020.86 1020.75 1020.63 1020.50 1020.34 1020.14 1019.90 1019.60 1019.25 1018.84 1018.37 1017.83 1017.24 1016.58 1015.88 1015.13 1014.37 1013.62 1012.91 1012.28 1011.76 1011.39 1011.21 1011.21 1011.43 1011.85 1012.48 1013.29 1014.26 1015.35 1016.53 1017.75
1018.77 1019.32 1019.83 1020.25 1020.58 1020.81 1020.96 1021.03 1021.05 1021.03 1020.99 1020.94 1020.86 1020.77 1020.65 1020.49 1020.28 1020.03 1019.73 1019.39 1018.99 1018.55 1018.05 1017.51 1016.92 1016.28 1015.62 1014.95 1014.28 1013.67 1013.13 1012.69 1012.40 1012.27 1012.32 1012.55 1012.97 1013.56 1014.31 1015.19 1016.18 1017.24 1018.34
1019.07 1019.50 1019.86 1020.17 1020.41 1020.59 1020.72 1020.81 1020.88 1020.93 1020.95 1020.96 1020.93 1020.87 1020.77 1020.63 1020.43 1020.19 1019.91 1019.59 1019.24 1018.85 1018.42 1017.96 1017.46 1016.92 1016.37 1015.81 1015.26 1014.76 1014.32 1013.98 1013.77 1013.69 1013.77 1014.00 1014.38 1014.91 1015.57 1016.33 1017.18 1018.08 1019.01
1019.48 1019.76 1019.99 1020.18 1020.32 1020.45 1020.56 1020.66 1020.76 1020.85 1020.93 1020.99 1021.01 1020.99 1020.91 1020.79 1020.62 1020.41 1020.17 1019.89 1019.59 1019.27 1018.93 1018.56 1018.16 1017.74 1017.30 1016.86 1016.44 1016.04 1015.71 1015.46 1015.31 1015.28 1015.36 1015.58 1015.91 1016.35 1016.89 1017.52 1018.20 1018.93 1019.68
1019.96 1020.13 1020.24 1020.32 1020.38 1020.45 1020.53 1020.63 1020.75 1020.87 1020.98 1021.08 1021.14 1021.15 1021.11 1021.02 1020.88 1020.71 1020.51 1020.29 1020.05 1019.80 1019.54 1019.26 1018.96 1018.64 1018.31 1017.98 1017.66 1017.37 1017.13 1016.95 1016.85 1016.84 1016.93 1017.11 1017.37 1017.72 1018.14 1018.62 1019.15 1019.71 1020.28
1020.49 1020.57 1020.60 1020.60 1020.60 1020.63 1020.68 1020.77 1020.88 1021.02 1021.15 1021.27 1021.35 1021.39 1021.38 1021.32 1021.22 1021.09 1020.93 1020.77 1020.59 1020.40 1020.21 1020.00 1019.78 1019.54 1019.30 1019.06 1018.82 1018.62 1018.44 1018.32 1018.26 1018.26 1018.33 1018.47 1018.66 1018.92 1019.23 1019.58 1019.97 1020.38 1020.82
1021.02 1021.06 1021.04 1021.00 1020.96 1020.96 1020.99 1021.06 1021.17 1021.30 1021.44 1021.56 1021.66 1021.71 1021.73 1021.70 1021.63 1021.54 1021.43 1021.31 1021.17 1021.03 1020.89 1020.73 1020.57 1020.39 1020.21 1020.03 1019.85 1019.70 1019.58 1019.49 1019.45 1019.46 1019.51 1019.61 1019.76 1019.94 1020.16 1020.41 1020.69 1020.99 1021.32
1021.51 1021.54 1021.51 1021.46 1021.42 1021.40 1021.41 1021.47 1021.57 1021.69 1021.81 1021.93 1022.03 1022.09 1022.13 1022.13 1022.09 1022.04 1021.97 1021.88 1021.78 1021.68 1021.56 1021.43 1021.30 1021.15 1021.00 1020.86 1020.73 1020.61 1020.52 1020.47 1020.44 1020.45 1020.50 1020.57 1020.67 1020.80 1020.96 1021.14 1021.34 1021.58 1021.83
1021.93 1021.97 1021.97 1021.93 1021.90 1021.88 1021.89 1021.93 1022.01 1022.11 1022.22 1022.33 1022.42 1022.50 1022.55 1022.57 1022.57 1022.55 1022.51 1022.46 1022.39 1022.30 1022.20 1022.08 1021.96 1021.83 1021.69 1021.57 1021.46 1021.37 1021.31 1021.28 1021.27 1021.29 1021.33 1021.39 1021.47 1021.57 1021.69 1021.83 1021.99 1022.18 1022.40
1022.25 1022.33 1022.35 1022.35 1022.33 1022.32 1022.34 1022.37 1022.44 1022.52 1022.61 1022.71 1022.80 1022.88 1022.95 1023.00 1023.03 1023.05 1023.04 1023.01 1022.96 1022.89 1022.79 1022.68 1022.56 1022.43 1022.30 1022.18 1022.09 1022.02 1021.98 1021.97 1021.98 1022.01 1022.07 1022.13 1022.20 1022.29 1022.39 1022.51 1022.66 1022.82 1023.02
1022.47 1022.58 1022.63 1022.66 1022.67 1022.68 1022.70 1022.73 1022.79 1022.86 1022.94 1023.03 1023.12 1023.22 1023.30 1023.38 1023.45 1023.50 1023.52 1023.52 1023.49 1023.43 1023.33 1023.22 1023.09 1022.95 1022.83 1022.72 1022.64 1022.58 1022.56 1022.57 1022.61 1022.67 1022.73 1022.81 1022.89 1022.97 1023.07 1023.18 1023.31 1023.47 1023.65
1022.58 1022.71 1022.78 1022.84 1022.87 1022.90 1022.94 1022.98 1023.03 1023.10 1023.17 1023.27 1023.37 1023.48 1023.59 1023.70 1023.80 1023.89 1023.94 1023.96 1023.95 1023.90 1023.81 1023.69 1023.55 1023.42 1023.29 1023.18 1023.11 1023.07 1023.07 1023.11 1023.17 1023.24 1023.33 1023.41 1023.50 1023.59 1023.69 1023.80 1023.92 1024.06 1024.22
1022.59 1022.71 1022.81 1022.88 1022.94 1022.99 1023.04 1023.10 1023.16 1023.23 1023.32 1023.42 1023.54 1023.67 1023.81 1023.95 1024.09 1024.20 1024.28 1024.33 1024.33 1024.28 1024.19 1024.08 1023.94 1023.80 1023.67 1023.57 1023.50 1023.48 1023.49 1023.54 1023.62 1023.72 1023.82 1023.91 1024.01 1024.10 1024.20 1024.29 1024.40 1024.53 1024.67
Thickness
5707 5707 5707 5705 5704 5702 5701 5701 5701 5702 5705 5706 5706 5705 5702 5700 5699 5699 5698 5698 5699 5699 5698 5698 5698 5698 5697 5697 5697 5695 5693 5692 5691 5688 5687 5688 5689 5690 5691 5691 5691 5691 5691
5700 5700 5698 5697 5697 5695 5694 5695 5694 5697 5699 5700 5700 5699 5696 5693 5692 5691 5690 5690 5690 5690 5690 5690 5690 5690 5690 5690 5690 5689 5687 5685 5685 5682 5679 5677 5678 5681 5683 5683 5684 5683 5683
5695 5692 5691 5689 5688 5687 5687 5687 5687 5689 5691 5693 5693 5691 5688 5685 5683 5681 5681 5681 5681 5681 5681 5682 5682 5682 5683 5682 5683 5683 5681 5679 5679 5679 5676 5673 5672 5672 5672 5673 5674 5674 5675
5687 5684 5682 5681 5680 5678 5679 5679 5679 5680 5681 5683 5682 5681 5678 5675 5672 5672 5671 5672 5672 5673 5673 5674 5674 5675 5675 5675 5676 5676 5676 5674 5672 5673 5673 5673 5672 5667 5664 5663 5664 5664 5665
5679 5676 5674 5672 5672 5671 5670 5670 5670 5671 5671 5672 5672 5671 5668 5666 5664 5664 5663 5663 5663 5664 5664 5665 5666 5666 5666 5667 5668 5669 5669 5669 5668 5666 5666 5667 5666 5665 5661 5656 5654 5653 5653
5672 5668 5666 5664 5663 5662 5661 5660 5660 5660 5661 5661 5661 5660 5658 5657 5655 5654 5652 5652 5653 5654 5655 5656 5656 5656 5657 5658 5660 5661 5661 5662 5662 5661 5661 5661 5660 5659 5656 5652 5648 5644 5642
5666 5663 5659 5656 5654 5652 5650 5649 5649 5649 5649 5649 5649 5648 5647 5646 5645 5644 5643 5643 5643 5644 5644 5646 5647 5648 5649 5650 5652 5653 5653 5654 5654 5654 5654 5655 5655 5655 5652 5649 5642 5636 5632
5659 5656 5651 5648 5645 5643 5640 5639 5638 5637 5637 5637 5637 5637 5636 5636 5635 5634 5634 5634 5633 5634 5635 5636 5637 5639 5640 5641 5644 5645 5645 5646 5646 5646 5647 5648 5648 5647 5646 5643 5638 5631 5624
5653 5648 5643 5639 5636 5633 5630 5629 5627 5625 5625 5625 5625 5625 5625 5625 5625 5624 5625 5625 5624 5625 5626 5627 5629 5630 5631 5633 5634 5635 5636 5637 5637 5638 5639 5639 5638 5638 5637 5636 5635 5631 5622
5646 5641 5636 5631 5627 5624 5621 5619 5617 5615 5614 5614 5614 5614 5613 5614 5615 5615 5615 5615 5615 5616 5617 5618 5619 5621 5622 5624 5625 5626 5627 5628 5628 5629 5629 5629 5629 5628 5627 5627 5626 5624 5620
5640 5635 5630 5625 5620 5616 5612 5609 5607 5605 5604 5603 5603 5603 5603 5604 5604 5604 5604 5605 5605 5606 5607 5608 5609 5611 5612 5613 5615 5616 5617 5618 5618 5619 5619 5618 5618 5618 5617 5617 5616 5614 5612
5635 5629 5623 5618 5613 5608 5604 5601 5598 5596 5595 5594 5593 5592 5593 5593 5593 5593 5594 5595 5595 5596 5597 5598 5599 5600 5602 5603 5604 5605 5606 5607 5607 5608 5609 5608 5609 5608 5607 5606 5605 5604 5602
5626 5621 5615 5610 5605 5600 5597 5593 5590 5587 5586 5585 5583 5582 5582 5582 5582 5583 5584 5585 5585 5586 5587 5587 5588 5589 5590 5592 5593 5594 5595 5595 5596 5597 5598 5597 5598 5597 5596 5596 5595 5593 5591
5617 5612 5607 5601 5597 5592 5588 5584 5581 5579 5577 5576 5574 5573 5573 5573 5573 5574 5575 5575 5575 5576 5576 5577 5577 5578 5580 5581 5582 5583 5584 5584 5585 5586 5587 5587 5587 5587 5586 5586 5584 5583 5580
5610 5605 5599 5593 5588 5583 5579 5576 5573 5570 5569 5567 5565 5564 5564 5564 5565 5565 5565 5565 5565 5566 5566 5567 5567 5568 5569 5570 5571 5572 5573 5573 5574 5575 5576 5576 5577 5577 5577 5577 5574 5573 5570
5605 5599 5593 5587 5581 5576 5571 5568 5565 5562 5561 5559 5558 5557 5556 5556 5556 5555 5556 5556 5555 5556 5557 5556 5557 5558 5559 5560 5562 5562 5562 5562 5563 5563 5565 5566 5566 5567 5567 5567 5566 5565 5562
5600 5593 5587 5580 5574 5569 5564 5560 5557 5555 5553 5552 5551 5550 5549 5548 5548 5548 5547 5547 5546 5547 5547 5547 5548 5548 5549 5551 5552 5553 5552 5552 5553 5553 5554 5556 5556 5556 5556 5556 5556 5555 5554
5593 5586 5579 5572 5566 5561 5557 5554 5551 5549 5547 5545 5544 5542 5542 5541 5540 5539 5538 5538 5538 5538 5538 5538 5539 5540 5541 5543 5544 5545 5544 5543 5543 5544 5545 5545 5546 5547 5548 5547 5545 5544 5543
5586 5578 5572 5566 5560 5555 5551 5548 5545 5543 5541 5539 5537 5536 5535 5534 5533 5532 5531 5531 5530 5530 5531 5531 5532 5532 5533 5535 5537 5537 5536 5535 5535 5536 5537 5538 5538 5539 5540 5539 5536 5535 5534
5579 5572 5566 5560 5554 5549 5546 5542 5539 5537 5535 5533 5531 5530 5529 5529 5527 5526 5525 5524 5524 5524 5525 5524 5524 5525 5526 5528 5530 5531 5530 5529 5528 5529 5530 5531 5532 5533 5533 5532 5530 5527 5526
5573 5567 5560 5554 5548 5544 5541 5537 5534 5531 5530 5529 5527 5526 5524 5523 5522 5521 5520 5519 5519 5518 5518 5518 5518 5519 5521 5522 5524 5526 5525 5524 5523 5523 5524 5525 5527 5527 5527 5527 5525 5524 5523
5566 5560 5553 5548 5543 5540 5536 5533 5529 5528 5527 5525 5523 5522 5520 5520 5519 5517 5516 5515 5514 5513 5512 5512 5512 5513 5515 5517 5519 5520 5521 5521 5520 5519 5520 5522 5524 5524 5524 5523 5523 5522 5521
5561 5555 5549 5544 5539 5536 5534 5530 5527 5525 5524 5522 5520 5518 5517 5516 5515 5514 5513 5511 5511 5510 5509 5508 5508 5508 5510 5512 5514 5516 5517 5517 5517 5517 5519 5521 5522 5522 5522 5522 5521 5520 5518
5557 5551 5546 5541 5536 5533 5531 5528 5526 5524 5521 5519 5517 5516 5514 5513 5512 5511 5510 5509 5508 5508 5507 5506 5505 5505 5506 5508 5510 5512 5514 5515 5516 5517 5518 5520 5520 5520 5520 5520 5519 5518 5517
5555 5549 5544 5540 5535 5532 5529 5527 5525 5522 5519 5517 5515 5514 5512 5510 5509 5508 5507 5507 5507 5508 5508 5507 5506 5505 5505 5507 5509 5510 5512 5513 5514 5515 5516 5516 5516 5516 5516 5517 5517 5517 5516
5553 5548 5543 5539 5535 5532 5528 5526 5524 5521 5518 5516 5515 5513 5511 5510 5509 5507 5506 5507 5508 5509 5510 5510 5509 5508 5509 5509 5510 5511 5513 5514 5516 5515 5514 5514 5515 5515 5516 5516 5516 5516 5515